| time (UTC) | temp F | wind direction | speed knots | gust knots | rain 1hr in | rain 24hr in | rain mn in | humidity % | barometer mb |
| 20260507072515 | 58 | 50 | 8.7 | 13.9 | 0.00 | 0.05 | 0.00 | 98 | 1013.2 |
| 20260507072014 | 58 | 40 | 8.7 | 13.0 | 0.00 | 0.05 | 0.00 | 98 | 1013.1 |
| 20260507071514 | 58 | 51 | 9.6 | 13.9 | 0.00 | 0.05 | 0.00 | 98 | 1012.9 |
| 20260507071020 | 58 | 54 | 11.3 | 14.8 | 0.00 | 0.05 | 0.00 | 98 | 1013.0 |
| 20260507070513 | 58 | 62 | 10.4 | 14.8 | 0.00 | 0.05 | 0.00 | 98 | 1013.2 |
| 20260507070014 | 58 | 40 | 9.6 | 13.9 | 0.00 | 0.05 | 0.00 | 98 | 1013.1 |
| 20260507065517 | 58 | 54 | 9.6 | 13.9 | 0.00 | 0.05 | 0.00 | 98 | 1012.8 |
| 20260507065011 | 58 | 49 | 9.6 | 13.0 | 0.00 | 0.05 | 0.00 | 98 | 1012.8 |
| 20260507064511 | 58 | 51 | 8.7 | 13.0 | 0.00 | 0.05 | 0.00 | 98 | 1013.0 |
| 20260507064012 | 58 | 44 | 8.7 | 13.0 | 0.00 | 0.05 | 0.00 | 98 | 1013.1 |
| 20260507063508 | 58 | 63 | 9.6 | 13.9 | 0.00 | 0.05 | 0.00 | 98 | 1013.0 |
| 20260507063007 | 58 | 46 | 9.6 | 13.9 | 0.00 | 0.05 | 0.00 | 98 | 1012.8 |
| 20260507062507 | 58 | 53 | 11.3 | 14.8 | 0.00 | 0.05 | 0.00 | 97 | 1012.4 |
| 20260507062007 | 58 | 57 | 11.3 | 16.5 | 0.00 | 0.05 | 0.00 | 98 | 1012.6 |
| 20260507061507 | 58 | 39 | 13.0 | 18.2 | 0.00 | 0.05 | 0.00 | 98 | 1012.7 |
| 20260507061005 | 58 | 44 | 13.0 | 18.2 | 0.00 | 0.05 | 0.00 | 98 | 1012.3 |
| 20260507060504 | 58 | 49 | 10.4 | 16.5 | 0.00 | 0.05 | 0.00 | 98 | 1012.3 |
| 20260507060007 | 58 | 66 | 12.2 | 16.5 | 0.00 | 0.05 | 0.00 | 98 | 1012.4 |
| 20260507055505 | 58 | 26 | 12.2 | 16.5 | 0.00 | 0.05 | 0.00 | 98 | 1012.4 |
| 20260507055005 | 58 | 42 | 10.4 | 16.5 | 0.00 | 0.05 | 0.00 | 98 | 1012.4 |
| 20260507054504 | 58 | 36 | 11.3 | 16.5 | 0.00 | 0.05 | 0.00 | 97 | 1012.5 |
| 20260507054002 | 59 | 38 | 12.2 | 16.5 | 0.00 | 0.05 | 0.00 | 97 | 1012.3 |
| 20260507053501 | 59 | 61 | 11.3 | 16.5 | 0.00 | 0.05 | 0.00 | 97 | 1012.4 |
| 20260507053102 | 59 | 52 | 11.3 | 16.5 | 0.00 | 0.05 | 0.00 | 97 | 1012.4 |
| 20260507052559 | 58 | 44 | 12.2 | 17.4 | 0.00 | 0.05 | 0.00 | 97 | 1012.3 |
| 20260507052058 | 58 | 57 | 12.2 | 16.5 | 0.00 | 0.05 | 0.00 | 97 | 1012.1 |
| 20260507051600 | 58 | 54 | 12.2 | 16.5 | 0.00 | 0.05 | 0.00 | 97 | 1011.9 |
| 20260507051100 | 58 | 46 | 11.3 | 15.6 | 0.00 | 0.05 | 0.00 | 97 | 1011.9 |
| 20260507050559 | 58 | 36 | 11.3 | 15.6 | 0.00 | 0.05 | 0.00 | 97 | 1011.7 |
| 20260507050055 | 58 | 59 | 12.2 | 14.8 | 0.00 | 0.05 | 0.00 | 97 | 1011.7 |
| 20260507045554 | 58 | 35 | 9.6 | 18.2 | 0.00 | 0.05 | 0.05 | 96 | 1012.0 |
| 20260507045053 | 58 | 65 | 10.4 | 18.2 | 0.00 | 0.05 | 0.05 | 96 | 1011.7 |
| 20260507044556 | 58 | 43 | 10.4 | 17.4 | 0.00 | 0.05 | 0.05 | 96 | 1011.1 |
| 20260507044052 | 58 | 65 | 12.2 | 16.5 | 0.00 | 0.05 | 0.05 | 96 | 1011.3 |
| 20260507043551 | 58 | 46 | 11.3 | 15.6 | 0.00 | 0.05 | 0.05 | 96 | 1011.5 |
| 20260507043050 | 58 | 74 | 9.6 | 15.6 | 0.00 | 0.05 | 0.05 | 96 | 1011.7 |
| 20260507042549 | 58 | 51 | 10.4 | 14.8 | 0.00 | 0.05 | 0.05 | 96 | 1011.8 |
| 20260507042048 | 59 | 61 | 10.4 | 13.9 | 0.00 | 0.05 | 0.05 | 96 | 1011.5 |
| 20260507041551 | 59 | 49 | 8.7 | 13.9 | 0.00 | 0.05 | 0.05 | 96 | 1011.9 |
| 20260507041047 | 59 | 45 | 9.6 | 15.6 | 0.00 | 0.05 | 0.05 | 96 | 1011.7 |
| 20260507040547 | 59 | 63 | 9.6 | 15.6 | 0.00 | 0.05 | 0.05 | 96 | 1011.6 |
| 20260507040057 | 59 | 53 | 11.3 | 14.8 | 0.00 | 0.05 | 0.05 | 96 | 1011.7 |
| 20260507035545 | 59 | 44 | 9.6 | 13.9 | 0.00 | 0.05 | 0.05 | 95 | 1011.7 |
| 20260507035044 | 59 | 65 | 9.6 | 13.9 | 0.00 | 0.05 | 0.05 | 95 | 1011.7 |
| 20260507034554 | 59 | 48 | 7.0 | 11.3 | 0.00 | 0.05 | 0.05 | 95 | 1011.8 |
| 20260507034043 | 59 | 53 | 7.0 | 11.3 | 0.00 | 0.05 | 0.05 | 95 | 1011.8 |
| 20260507033543 | 59 | 59 | 7.0 | 14.8 | 0.00 | 0.05 | 0.05 | 95 | 1011.8 |
| 20260507033044 | 59 | 55 | 7.8 | 14.8 | 0.00 | 0.05 | 0.05 | 95 | 1011.5 |
| 20260507032544 | 59 | 43 | 8.7 | 12.2 | 0.00 | 0.05 | 0.05 | 95 | 1011.5 |
| 20260507032040 | 59 | 55 | 8.7 | 13.0 | 0.00 | 0.05 | 0.05 | 95 | 1011.4 |
| 20260507031540 | 59 | 45 | 7.8 | 13.0 | 0.00 | 0.05 | 0.05 | 95 | 1011.2 |
| 20260507031040 | 59 | 53 | 8.7 | 11.3 | 0.00 | 0.05 | 0.05 | 95 | 1011.2 |
| 20260507030538 | 59 | 47 | 7.8 | 14.8 | 0.00 | 0.05 | 0.05 | 94 | 1011.2 |
| 20260507030039 | 59 | 55 | 8.7 | 14.8 | 0.00 | 0.05 | 0.05 | 94 | 1010.9 |
| 20260507025538 | 59 | 63 | 7.8 | 14.8 | 0.00 | 0.05 | 0.05 | 94 | 1010.9 |
| 20260507025037 | 59 | 69 | 9.6 | 16.5 | 0.00 | 0.05 | 0.05 | 94 | 1010.9 |
| 20260507024537 | 59 | 46 | 10.4 | 16.5 | 0.00 | 0.05 | 0.05 | 94 | 1011.0 |
| 20260507024040 | 60 | 42 | 11.3 | 15.6 | 0.00 | 0.05 | 0.05 | 94 | 1010.9 |
| 20260507023534 | 60 | 50 | 10.4 | 14.8 | 0.00 | 0.05 | 0.05 | 94 | 1010.7 |
| 20260507023033 | 60 | 45 | 10.4 | 18.2 | 0.00 | 0.05 | 0.05 | 94 | 1010.6 |
| 20260507022532 | 60 | 36 | 13.9 | 17.4 | 0.00 | 0.05 | 0.05 | 94 | 1010.4 |
| 20260507022032 | 60 | 46 | 12.2 | 16.5 | 0.00 | 0.05 | 0.05 | 94 | 1010.6 |
| 20260507021531 | 60 | 58 | 11.3 | 16.5 | 0.00 | 0.05 | 0.05 | 94 | 1010.5 |
| 20260507021029 | 60 | 67 | 11.3 | 14.8 | 0.00 | 0.05 | 0.05 | 94 | 1010.3 |
| 20260507020530 | 60 | 51 | 11.3 | 14.8 | 0.00 | 0.05 | 0.05 | 94 | 1010.2 |
| 20260507020028 | 60 | 58 | 11.3 | 14.8 | 0.00 | 0.05 | 0.05 | 94 | 1010.1 |
| 20260507015531 | 60 | 43 | 11.3 | 15.6 | 0.00 | 0.05 | 0.05 | 94 | 1010.1 |
| 20260507015027 | 60 | 54 | 11.3 | 15.6 | 0.00 | 0.05 | 0.05 | 94 | 1010.1 |
| 20260507014526 | 60 | 49 | 13.0 | 15.6 | 0.00 | 0.05 | 0.05 | 94 | 1010.0 |
| 20260507014025 | 60 | 49 | 10.4 | 15.6 | 0.00 | 0.05 | 0.05 | 94 | 1010.0 |
| 20260507013524 | 60 | 37 | 10.4 | 14.8 | 0.00 | 0.05 | 0.05 | 93 | 1009.9 |
| 20260507013033 | 60 | 39 | 11.3 | 15.6 | 0.00 | 0.05 | 0.05 | 93 | 1009.7 |
| 20260507012526 | 60 | 38 | 12.2 | 15.6 | 0.00 | 0.05 | 0.05 | 93 | 1009.8 |
| 20260507012022 | 61 | 41 | 13.0 | 15.6 | 0.00 | 0.05 | 0.05 | 93 | 1009.7 |
| 20260507011534 | 61 | 44 | 11.3 | 15.6 | 0.00 | 0.05 | 0.05 | 93 | 1009.6 |
| 20260507011021 | 61 | 36 | 12.2 | 16.5 | 0.00 | 0.05 | 0.05 | 93 | 1009.6 |
| 20260507010520 | 61 | 47 | 10.4 | 16.5 | 0.00 | 0.05 | 0.05 | 93 | 1009.6 |
| 20260507010019 | 61 | 44 | 11.3 | 15.6 | 0.00 | 0.05 | 0.05 | 92 | 1009.3 |
| 20260507005517 | 61 | 48 | 11.3 | 15.6 | 0.00 | 0.05 | 0.05 | 92 | 1009.3 |
| 20260507005017 | 61 | 28 | 11.3 | 15.6 | 0.00 | 0.05 | 0.05 | 92 | 1009.2 |
| 20260507004518 | 61 | 46 | 11.3 | 14.8 | 0.00 | 0.05 | 0.05 | 92 | 1009.1 |
| 20260507004015 | 61 | 40 | 12.2 | 14.8 | 0.00 | 0.05 | 0.05 | 92 | 1009.1 |
| 20260507003514 | 62 | 33 | 8.7 | 13.9 | 0.00 | 0.05 | 0.05 | 92 | 1009.2 |
| 20260507003018 | 62 | 23 | 9.6 | 15.6 | 0.00 | 0.05 | 0.05 | 92 | 1009.2 |
| 20260507002511 | 62 | 38 | 10.4 | 15.6 | 0.00 | 0.05 | 0.05 | 92 | 1009.0 |
| 20260507002011 | 62 | 32 | 10.4 | 13.0 | 0.00 | 0.05 | 0.05 | 91 | 1008.9 |
| 20260507001510 | 62 | 46 | 8.7 | 13.9 | 0.00 | 0.05 | 0.05 | 91 | 1008.8 |
| 20260507001010 | 62 | 38 | 10.4 | 13.9 | 0.00 | 0.05 | 0.05 | 91 | 1008.6 |
| 20260507000511 | 62 | 50 | 9.6 | 12.2 | 0.00 | 0.05 | 0.05 | 91 | 1008.7 |
| 20260507000008 | 63 | 51 | 8.7 | 12.2 | 0.00 | 0.05 | 0.05 | 91 | 1008.8 |
| 20260506235508 | 63 | 46 | 8.7 | 13.9 | 0.00 | 0.05 | 0.05 | 91 | 1008.6 |
| 20260506235007 | 63 | 44 | 10.4 | 13.9 | 0.00 | 0.05 | 0.05 | 90 | 1008.5 |
| 20260506234510 | 63 | 24 | 10.4 | 13.9 | 0.00 | 0.05 | 0.05 | 90 | 1008.6 |
| 20260506234006 | 63 | 42 | 7.0 | 14.8 | 0.00 | 0.05 | 0.05 | 90 | 1008.6 |
| 20260506233503 | 64 | 40 | 11.3 | 16.5 | 0.00 | 0.05 | 0.05 | 89 | 1008.4 |
| 20260506233003 | 64 | 41 | 10.4 | 16.5 | 0.00 | 0.05 | 0.05 | 89 | 1008.5 |
| 20260506232502 | 64 | 16 | 12.2 | 16.5 | 0.00 | 0.05 | 0.05 | 89 | 1008.5 |
| 20260506232000 | 65 | 22 | 10.4 | 14.8 | 0.00 | 0.05 | 0.05 | 89 | 1008.5 |
| 20260506231600 | 65 | 10 | 11.3 | 15.6 | 0.00 | 0.05 | 0.05 | 88 | 1008.5 |
| 20260506231034 | 66 | 51 | 9.6 | 15.6 | 0.00 | 0.05 | 0.05 | 88 | 1008.3 |
| 20260506230533 | 66 | 30 | 10.4 | 14.8 | 0.00 | 0.05 | 0.05 | 88 | 1008.0 |
| 20260506230033 | 66 | 18 | 10.4 | 16.5 | 0.00 | 0.05 | 0.05 | 88 | 1008.0 |
| 20260506225533 | 67 | 19 | 10.4 | 15.6 | 0.00 | 0.05 | 0.05 | 87 | 1008.0 |
| 20260506225033 | 67 | 12 | 9.6 | 14.8 | 0.00 | 0.05 | 0.05 | 87 | 1008.1 |
| 20260506224533 | 68 | 36 | 9.6 | 13.9 | 0.00 | 0.05 | 0.05 | 87 | 1007.9 |
| 20260506224032 | 68 | 72 | 9.6 | 13.9 | 0.00 | 0.05 | 0.05 | 86 | 1007.7 |
| 20260506223531 | 69 | 25 | 10.4 | 13.9 | 0.00 | 0.05 | 0.05 | 85 | 1007.7 |
| 20260506223031 | 69 | 53 | 8.7 | 13.9 | 0.00 | 0.05 | 0.05 | 85 | 1007.9 |
| 20260506222531 | 70 | 54 | 9.6 | 13.9 | 0.00 | 0.05 | 0.05 | 85 | 1007.5 |
| 20260506222032 | 71 | 52 | 8.7 | 13.0 | 0.00 | 0.05 | 0.05 | 85 | 1007.7 |
| 20260506221530 | 71 | 19 | 7.8 | 13.0 | 0.00 | 0.05 | 0.05 | 86 | 1007.5 |
| 20260506221030 | 71 | 18 | 8.7 | 12.2 | 0.00 | 0.05 | 0.05 | 85 | 1007.6 |
| 20260506220530 | 71 | 42 | 8.7 | 12.2 | 0.00 | 0.05 | 0.05 | 85 | 1007.5 |
| 20260506220129 | 71 | 57 | 7.8 | 13.0 | 0.00 | 0.05 | 0.05 | 85 | 1007.5 |
| 20260506215529 | 72 | 36 | 8.7 | 13.0 | 0.00 | 0.05 | 0.05 | 85 | 1007.5 |
| 20260506215029 | 72 | 30 | 7.0 | 12.2 | 0.00 | 0.05 | 0.05 | 85 | 1007.6 |
| 20260506214529 | 73 | 22 | 9.6 | 12.2 | 0.00 | 0.05 | 0.05 | 84 | 1007.7 |
| 20260506214028 | 73 | 19 | 9.6 | 13.0 | 0.00 | 0.05 | 0.05 | 85 | 1007.8 |
| 20260506213530 | 73 | 9 | 8.7 | 13.0 | 0.00 | 0.05 | 0.05 | 85 | 1007.6 |
| 20260506213029 | 73 | 34 | 7.8 | 12.2 | 0.00 | 0.05 | 0.05 | 86 | 1007.6 |
| 20260506212532 | 73 | 34 | 8.7 | 12.2 | 0.00 | 0.05 | 0.05 | 86 | 1007.6 |
| 20260506212029 | 73 | 33 | 7.0 | 13.0 | 0.00 | 0.05 | 0.05 | 86 | 1007.6 |
| 20260506211529 | 73 | 36 | 9.6 | 13.0 | 0.00 | 0.05 | 0.05 | 85 | 1007.5 |
| 20260506211029 | 74 | 34 | 8.7 | 12.2 | 0.00 | 0.05 | 0.05 | 86 | 1007.4 |
| 20260506210531 | 74 | 59 | 7.8 | 11.3 | 0.00 | 0.05 | 0.05 | 87 | 1007.6 |
| 20260506210027 | 74 | 24 | 7.8 | 11.3 | 0.00 | 0.05 | 0.05 | 85 | 1007.6 |
| 20260506205527 | 75 | 18 | 5.2 | 9.6 | 0.00 | 0.05 | 0.05 | 87 | 1007.7 |
| 20260506205028 | 75 | 63 | 5.2 | 9.6 | 0.00 | 0.05 | 0.05 | 87 | 1007.8 |
| 20260506204528 | 75 | 72 | 5.2 | 10.4 | 0.00 | 0.05 | 0.05 | 86 | 1007.9 |
| 20260506204029 | 76 | 59 | 7.0 | 10.4 | 0.00 | 0.05 | 0.05 | 85 | 1007.8 |
| 20260506203526 | 76 | 63 | 6.1 | 10.4 | 0.00 | 0.05 | 0.05 | 86 | 1007.7 |
| 20260506203033 | 76 | 50 | 5.2 | 10.4 | 0.00 | 0.05 | 0.05 | 87 | 1007.8 |
| 20260506202527 | 76 | 90 | 6.1 | 10.4 | 0.00 | 0.05 | 0.05 | 87 | 1007.8 |
| 20260506202025 | 76 | 67 | 6.1 | 10.4 | 0.00 | 0.05 | 0.05 | 86 | 1007.9 |
| 20260506201525 | 76 | 67 | 7.0 | 10.4 | 0.00 | 0.05 | 0.05 | 86 | 1008.1 |
| 20260506201024 | 76 | 71 | 7.0 | 9.6 | 0.00 | 0.05 | 0.05 | 86 | 1008.1 |
| 20260506200524 | 75 | 34 | 5.2 | 8.7 | 0.00 | 0.05 | 0.05 | 87 | 1008.2 |
| 20260506200026 | 75 | 75 | 4.3 | 8.7 | 0.00 | 0.05 | 0.05 | 87 | 1008.2 |
| 20260506195524 | 75 | 66 | 2.6 | 8.7 | 0.00 | 0.05 | 0.05 | 87 | 1008.2 |
| 20260506195024 | 76 | 23 | 4.3 | 7.8 | 0.00 | 0.05 | 0.05 | 86 | 1008.3 |
| 20260506194523 | 76 | 69 | 3.5 | 7.8 | 0.00 | 0.05 | 0.05 | 89 | 1008.2 |
| 20260506194021 | 75 | 80 | 4.3 | 7.8 | 0.00 | 0.05 | 0.05 | 89 | 1008.2 |
| 20260506193520 | 75 | 79 | 2.6 | 7.8 | 0.00 | 0.05 | 0.05 | 91 | 1008.3 |
| 20260506193019 | 74 | 28 | 3.5 | 8.7 | 0.00 | 0.05 | 0.05 | 90 | 1008.5 |
| 20260506192519 | 74 | 69 | 5.2 | 8.7 | 0.00 | 0.05 | 0.05 | 90 | 1008.5 |
| 20260506192017 | 74 | 67 | 4.3 | 8.7 | 0.00 | 0.05 | 0.05 | 92 | 1008.4 |
| 20260506191518 | 73 | 24 | 3.5 | 6.1 | 0.00 | 0.05 | 0.05 | 91 | 1008.6 |
| 20260506191018 | 73 | 30 | 3.5 | 6.1 | 0.00 | 0.05 | 0.05 | 92 | 1008.6 |
| 20260506190515 | 73 | 33 | 3.5 | 5.2 | 0.00 | 0.05 | 0.05 | 92 | 1008.6 |
| 20260506190021 | 73 | 49 | 1.7 | 5.2 | 0.00 | 0.05 | 0.05 | 92 | 1008.7 |
| 20260506185514 | 73 | 76 | 2.6 | 5.2 | 0.00 | 0.05 | 0.05 | 92 | 1008.8 |
| 20260506185014 | 73 | 65 | 3.5 | 5.2 | 0.00 | 0.05 | 0.05 | 92 | 1008.8 |
| 20260506184514 | 73 | 53 | 2.6 | 5.2 | 0.00 | 0.05 | 0.05 | 93 | 1008.8 |
| 20260506184013 | 73 | 70 | 3.5 | 7.8 | 0.00 | 0.05 | 0.05 | 92 | 1008.9 |
| 20260506183512 | 73 | 67 | 5.2 | 10.4 | 0.00 | 0.05 | 0.05 | 92 | 1009.0 |
| 20260506183014 | 73 | 78 | 3.5 | 10.4 | 0.00 | 0.05 | 0.05 | 94 | 1008.9 |
| 20260506182512 | 73 | 68 | 7.0 | 9.6 | 0.00 | 0.05 | 0.05 | 95 | 1008.7 |
| 20260506182019 | 72 | 54 | 6.1 | 9.6 | 0.00 | 0.05 | 0.05 | 97 | 1008.8 |
| 20260506181512 | 71 | 74 | 5.2 | 10.4 | 0.00 | 0.05 | 0.05 | 98 | 1008.8 |
| 20260506181012 | 71 | 28 | 7.0 | 9.6 | 0.00 | 0.05 | 0.05 | 99 | 1008.9 |
| 20260506180512 | 70 | 56 | 6.1 | 9.6 | 0.00 | 0.05 | 0.05 | 99 | 1009.0 |
| 20260506180012 | 70 | 41 | 5.2 | 10.4 | 0.00 | 0.05 | 0.05 | 99 | 1009.0 |
| 20260506175512 | 69 | 63 | 6.1 | 9.6 | 0.00 | 0.05 | 0.05 | 99 | 1009.1 |
| 20260506175011 | 69 | 55 | 6.1 | 7.8 | 0.00 | 0.05 | 0.05 | 99 | 1009.1 |
| 20260506174515 | 68 | 350 | 2.6 | 7.8 | 0.00 | 0.05 | 0.05 | 99 | 1009.3 |
| 20260506174013 | 68 | 5 | 3.5 | 8.7 | 0.00 | 0.05 | 0.05 | 99 | 1009.2 |
| 20260506173511 | 68 | 39 | 7.0 | 8.7 | 0.00 | 0.05 | 0.05 | 99 | 1009.2 |
| 20260506173009 | 68 | 49 | 4.3 | 9.6 | 0.00 | 0.05 | 0.05 | 99 | 1009.1 |
| 20260506172511 | 68 | 49 | 7.0 | 10.4 | 0.00 | 0.05 | 0.05 | 100 | 1009.2 |
| 20260506172009 | 67 | 67 | 7.8 | 10.4 | 0.00 | 0.05 | 0.05 | 99 | 1009.1 |
| 20260506171514 | 67 | 34 | 6.1 | 11.3 | 0.00 | 0.05 | 0.05 | 99 | 1009.1 |
| 20260506171009 | 68 | 55 | 6.1 | 11.3 | 0.00 | 0.05 | 0.05 | 100 | 1009.1 |
| 20260506170511 | 68 | 48 | 7.8 | 11.3 | 0.00 | 0.05 | 0.05 | 100 | 1009.0 |
| 20260506170009 | 67 | 59 | 6.1 | 11.3 | 0.00 | 0.05 | 0.05 | 100 | 1009.0 |
| 20260506165510 | 66 | 47 | 8.7 | 10.4 | 0.00 | 0.05 | 0.05 | 100 | 1009.1 |
| 20260506165008 | 66 | 33 | 7.8 | 10.4 | 0.00 | 0.05 | 0.05 | 100 | 1009.1 |
| 20260506164508 | 66 | 30 | 7.8 | 10.4 | 0.01 | 0.05 | 0.05 | 100 | 1009.1 |
| 20260506164007 | 66 | 9 | 7.0 | 10.4 | 0.03 | 0.05 | 0.05 | 100 | 1009.0 |
| 20260506163505 | 66 | 30 | 6.1 | 10.4 | 0.03 | 0.05 | 0.05 | 100 | 1008.9 |
| 20260506163006 | 66 | 44 | 6.1 | 10.4 | 0.03 | 0.05 | 0.05 | 99 | 1008.8 |
| 20260506162505 | 66 | 20 | 7.8 | 10.4 | 0.03 | 0.05 | 0.05 | 100 | 1008.8 |
| 20260506162007 | 66 | 38 | 6.1 | 11.3 | 0.03 | 0.05 | 0.05 | 100 | 1008.8 |
| 20260506161504 | 66 | 46 | 7.0 | 12.2 | 0.03 | 0.05 | 0.05 | 100 | 1008.7 |
| 20260506161003 | 66 | 42 | 8.7 | 12.2 | 0.03 | 0.05 | 0.05 | 100 | 1008.5 |
| 20260506160506 | 66 | 22 | 7.0 | 13.0 | 0.03 | 0.05 | 0.05 | 99 | 1008.5 |
| 20260506160002 | 66 | 36 | 7.8 | 14.8 | 0.03 | 0.05 | 0.05 | 99 | 1008.4 |
| 20260506155600 | 66 | 32 | 9.6 | 14.8 | 0.03 | 0.05 | 0.05 | 99 | 1008.4 |
| 20260506155059 | 67 | 36 | 9.6 | 15.6 | 0.04 | 0.05 | 0.05 | 99 | 1008.4 |
| 20260506154558 | 68 | 22 | 11.3 | 15.6 | 0.03 | 0.04 | 0.04 | 98 | 1008.3 |
| 20260506154058 | 71 | 9 | 2.6 | 4.3 | 0.01 | 0.02 | 0.02 | 100 | 1008.2 |
| 20260506153557 | 71 | 9 | 2.6 | 3.5 | 0.01 | 0.02 | 0.02 | 100 | 1008.1 |
| 20260506153119 | 71 | 23 | 1.7 | 2.6 | 0.01 | 0.02 | 0.02 | 100 | 1008.0 |
| 20260506152559 | 71 | 9 | 0.9 | 1.7 | 0.01 | 0.02 | 0.02 | 100 | 1008.0 |
| 20260506152056 | 71 | 26 | 0.0 | 1.7 | 0.01 | 0.02 | 0.02 | 100 | 1008.0 |
| 20260506151556 | 71 | 26 | 0.0 | 0.9 | 0.01 | 0.02 | 0.02 | 100 | 1008.1 |
| 20260506151057 | 71 | 234 | 0.0 | 0.9 | 0.01 | 0.02 | 0.02 | 100 | 1008.0 |
| 20260506150555 | 71 | 234 | 0.0 | 0.0 | 0.01 | 0.02 | 0.02 | 100 | 1007.9 |
| 20260506150056 | 71 | 234 | 0.0 | 0.0 | 0.01 | 0.02 | 0.02 | 100 | 1007.8 |
| 20260506145556 | 70 | 234 | 0.0 | 0.0 | 0.01 | 0.02 | 0.02 | 100 | 1007.9 |
| 20260506145056 | 70 | 234 | 0.0 | 0.0 | 0.00 | 0.01 | 0.01 | 100 | 1007.9 |
| 20260506144555 | 70 | 234 | 0.0 | 0.9 | 0.00 | 0.01 | 0.01 | 100 | 1007.9 |
| 20260506144055 | 70 | 234 | 0.0 | 0.9 | 0.00 | 0.01 | 0.01 | 100 | 1007.9 |
| 20260506143555 | 70 | 234 | 0.0 | 0.0 | 0.00 | 0.01 | 0.01 | 100 | 1008.1 |
| 20260506143055 | 70 | 234 | 0.0 | 1.7 | 0.00 | 0.01 | 0.01 | 100 | 1008.1 |
| 20260506142553 | 70 | 234 | 0.0 | 1.7 | 0.01 | 0.01 | 0.01 | 100 | 1008.1 |
| 20260506142053 | 70 | 241 | 0.0 | 0.9 | 0.01 | 0.01 | 0.01 | 100 | 1007.9 |
| 20260506141553 | 70 | 241 | 0.0 | 2.6 | 0.01 | 0.01 | 0.01 | 100 | 1007.9 |
| 20260506141052 | 70 | 241 | 0.9 | 3.5 | 0.01 | 0.01 | 0.01 | 100 | 1007.7 |
| 20260506140554 | 70 | 208 | 0.9 | 3.5 | 0.01 | 0.01 | 0.01 | 100 | 1007.5 |
| 20260506140050 | 70 | 212 | 0.9 | 6.1 | 0.01 | 0.01 | 0.01 | 100 | 1007.4 |
| 20260506135551 | 70 | 242 | 2.6 | 6.1 | 0.01 | 0.01 | 0.01 | 100 | 1007.1 |
| 20260506135048 | 70 | 213 | 2.6 | 7.8 | 0.01 | 0.01 | 0.01 | 100 | 1007.1 |
| 20260506134547 | 70 | 187 | 4.3 | 7.8 | 0.01 | 0.01 | 0.01 | 100 | 1006.9 |
| 20260506134046 | 70 | 207 | 3.5 | 10.4 | 0.01 | 0.01 | 0.01 | 100 | 1006.6 |
| 20260506133546 | 70 | 175 | 6.1 | 10.4 | 0.01 | 0.01 | 0.01 | 100 | 1006.5 |
| 20260506133048 | 70 | 196 | 3.5 | 5.2 | 0.00 | 0.00 | 0.00 | 100 | 1006.4 |
| 20260506132550 | 70 | 173 | 2.6 | 6.1 | 0.00 | 0.00 | 0.00 | 100 | 1006.2 |
| 20260506132045 | 70 | 211 | 3.5 | 6.1 | 0.00 | 0.00 | 0.00 | 100 | 1006.2 |
| 20260506131545 | 70 | 196 | 3.5 | 7.8 | 0.00 | 0.00 | 0.00 | 100 | 1006.1 |
| 20260506131045 | 70 | 201 | 4.3 | 7.8 | 0.00 | 0.00 | 0.00 | 100 | 1006.1 |
| 20260506130546 | 70 | 210 | 1.7 | 6.1 | 0.00 | 0.00 | 0.00 | 100 | 1006.1 |
| 20260506130018 | 70 | 200 | 3.5 | 7.8 | 0.00 | 0.00 | 0.00 | 100 | 1006.2 |
| 20260506125517 | 70 | 219 | 3.5 | 6.1 | 0.00 | 0.00 | 0.00 | 100 | 1006.1 |
| 20260506125017 | 70 | 213 | 1.7 | 5.2 | 0.00 | 0.00 | 0.00 | 100 | 1006.1 |
| 20260506124517 | 70 | 215 | 3.5 | 5.2 | 0.00 | 0.00 | 0.00 | 100 | 1006.0 |
| 20260506124019 | 70 | 219 | 2.6 | 7.8 | 0.00 | 0.00 | 0.00 | 100 | 1005.9 |
| 20260506123520 | 70 | 188 | 4.3 | 9.6 | 0.00 | 0.00 | 0.00 | 100 | 1005.8 |
| 20260506123017 | 70 | 188 | 4.3 | 10.4 | 0.00 | 0.00 | 0.00 | 100 | 1005.8 |
| 20260506122517 | 70 | 215 | 6.1 | 13.9 | 0.00 | 0.00 | 0.00 | 100 | 1005.9 |
| 20260506122015 | 70 | 184 | 7.8 | 13.9 | 0.00 | 0.00 | 0.00 | 100 | 1005.8 |
| 20260506121515 | 70 | 216 | 6.1 | 11.3 | 0.00 | 0.00 | 0.00 | 100 | 1005.7 |
| 20260506121014 | 70 | 184 | 5.2 | 11.3 | 0.00 | 0.00 | 0.00 | 100 | 1005.6 |
| 20260506120513 | 70 | 207 | 5.2 | 11.3 | 0.00 | 0.00 | 0.00 | 100 | 1005.8 |
| 20260506120013 | 70 | 170 | 6.1 | 10.4 | 0.00 | 0.00 | 0.00 | 100 | 1005.6 |
| 20260506115512 | 70 | 167 | 6.1 | 9.6 | 0.00 | 0.00 | 0.00 | 100 | 1005.6 |
| 20260506115011 | 70 | 171 | 5.2 | 7.8 | 0.00 | 0.00 | 0.00 | 100 | 1005.7 |
| 20260506114510 | 70 | 121 | 4.3 | 9.6 | 0.00 | 0.00 | 0.00 | 100 | 1005.7 |
| 20260506114010 | 70 | 181 | 3.5 | 9.6 | 0.00 | 0.00 | 0.00 | 100 | 1005.7 |
| 20260506113510 | 70 | 172 | 4.3 | 8.7 | 0.00 | 0.00 | 0.00 | 100 | 1005.8 |
| 20260506113010 | 70 | 150 | 4.3 | 8.7 | 0.00 | 0.00 | 0.00 | 100 | 1005.8 |
| 20260506112512 | 70 | 174 | 6.1 | 10.4 | 0.00 | 0.00 | 0.00 | 100 | 1005.8 |
| 20260506112009 | 70 | 165 | 7.0 | 10.4 | 0.00 | 0.00 | 0.00 | 100 | 1005.9 |
| 20260506111520 | 70 | 155 | 4.3 | 10.4 | 0.00 | 0.00 | 0.00 | 100 | 1006.0 |
| 20260506111008 | 70 | 173 | 5.2 | 10.4 | 0.00 | 0.00 | 0.00 | 100 | 1006.0 |
| 20260506110508 | 70 | 161 | 5.2 | 9.6 | 0.00 | 0.00 | 0.00 | 100 | 1006.0 |
| 20260506110010 | 70 | 175 | 6.1 | 9.6 | 0.00 | 0.00 | 0.00 | 100 | 1005.9 |
| 20260506105507 | 70 | 144 | 5.2 | 7.8 | 0.00 | 0.00 | 0.00 | 100 | 1005.9 |
| 20260506105107 | 70 | 163 | 2.6 | 7.0 | 0.00 | 0.00 | 0.00 | 100 | 1005.9 |
| 20260506104506 | 70 | 183 | 2.6 | 7.0 | 0.00 | 0.00 | 0.00 | 100 | 1006.0 |
| 20260506104008 | 70 | 172 | 4.3 | 7.8 | 0.00 | 0.00 | 0.00 | 100 | 1005.9 |
| 20260506103507 | 70 | 155 | 2.6 | 7.8 | 0.00 | 0.00 | 0.00 | 100 | 1005.8 |
| 20260506103006 | 70 | 142 | 2.6 | 7.0 | 0.00 | 0.00 | 0.00 | 99 | 1005.9 |
| 20260506102507 | 70 | 190 | 3.5 | 8.7 | 0.00 | 0.00 | 0.00 | 99 | 1005.9 |
| 20260506102008 | 70 | 191 | 5.2 | 10.4 | 0.00 | 0.00 | 0.00 | 99 | 1005.8 |
| 20260506101505 | 70 | 185 | 7.0 | 12.2 | 0.00 | 0.00 | 0.00 | 99 | 1005.7 |
| 20260506101004 | 70 | 173 | 7.0 | 12.2 | 0.00 | 0.00 | 0.00 | 99 | 1005.6 |
| 20260506100504 | 70 | 178 | 6.1 | 13.9 | 0.00 | 0.00 | 0.00 | 99 | 1005.8 |
| 20260506100004 | 70 | 194 | 6.1 | 10.4 | 0.00 | 0.00 | 0.00 | 99 | 1005.8 |
| 20260506095503 | 71 | 178 | 5.2 | 13.0 | 0.00 | 0.00 | 0.00 | 99 | 1005.7 |
| 20260506095004 | 71 | 197 | 7.0 | 13.0 | 0.00 | 0.00 | 0.00 | 99 | 1005.7 |
| 20260506094504 | 71 | 169 | 6.1 | 10.4 | 0.00 | 0.00 | 0.00 | 99 | 1005.7 |
| 20260506094003 | 71 | 182 | 6.1 | 10.4 | 0.00 | 0.00 | 0.00 | 99 | 1005.8 |
| 20260506093502 | 71 | 145 | 6.1 | 10.4 | 0.00 | 0.00 | 0.00 | 99 | 1005.8 |
| 20260506093002 | 71 | 189 | 6.1 | 12.2 | 0.00 | 0.00 | 0.00 | 99 | 1005.9 |
| 20260506092501 | 71 | 180 | 7.0 | 14.8 | 0.00 | 0.00 | 0.00 | 99 | 1005.9 |
| 20260506092002 | 71 | 167 | 8.7 | 14.8 | 0.00 | 0.00 | 0.00 | 99 | 1005.7 |
| 20260506091503 | 71 | 174 | 4.3 | 11.3 | 0.00 | 0.00 | 0.00 | 99 | 1005.8 |
| 20260506091005 | 71 | 182 | 5.2 | 14.8 | 0.00 | 0.00 | 0.00 | 99 | 1005.8 |
| 20260506090600 | 71 | 218 | 7.8 | 14.8 | 0.00 | 0.00 | 0.00 | 99 | 1005.8 |
| 20260506090111 | 71 | 167 | 7.8 | 13.0 | 0.00 | 0.00 | 0.00 | 99 | 1005.8 |
| 20260506085559 | 71 | 180 | 7.8 | 13.0 | 0.00 | 0.00 | 0.00 | 99 | 1005.8 |
| 20260506085059 | 71 | 172 | 7.8 | 13.9 | 0.00 | 0.00 | 0.00 | 99 | 1005.7 |
| 20260506084632 | 71 | 167 | 7.8 | 14.8 | 0.00 | 0.00 | 0.00 | 99 | 1005.7 |
| 20260506084100 | 71 | 192 | 7.0 | 14.8 | 0.00 | 0.00 | 0.00 | 99 | 1005.6 |
| 20260506083558 | 71 | 202 | 7.0 | 11.3 | 0.00 | 0.00 | 0.00 | 99 | 1005.5 |
| 20260506083059 | 71 | 167 | 5.2 | 12.2 | 0.00 | 0.00 | 0.00 | 99 | 1005.5 |
| 20260506082557 | 71 | 211 | 4.3 | 14.8 | 0.00 | 0.00 | 0.00 | 98 | 1005.5 |
| 20260506082056 | 71 | 178 | 5.2 | 13.9 | 0.00 | 0.00 | 0.00 | 98 | 1005.5 |
| 20260506081611 | 71 | 153 | 8.7 | 14.8 | 0.00 | 0.00 | 0.00 | 98 | 1005.5 |
| 20260506081055 | 71 | 184 | 7.8 | 14.8 | 0.00 | 0.00 | 0.00 | 98 | 1005.5 |
| 20260506080554 | 71 | 186 | 7.8 | 13.9 | 0.00 | 0.00 | 0.00 | 98 | 1005.6 |
| 20260506073047 | 72 | 172 | 6.1 | 10.4 | 0.00 | 0.00 | 0.00 | 97 | 1005.8 |